RYR109 LMML-LFMN

Flight info

Callsign RYR109
Flight time N/A
Altitude 32000
Route GZO M622 SOPIR DCT MABOX DCT ADEXI DCT RONAB DCT RUVIP DCT BETOT DCT POKAV DCT KISTO DCT TOBGA DCT DOBIM DCT AKUTI R16 KERIT
Aircraft A320/M-SDE3FGHIRWY/LB1

Departure

Time 2026-05-04 07:08
Airport Malta International Airport (LMML)

Arrival

Time N/A
Airport Nice-Côte d'Azur Airport (LFMN)
Time Latitude Longitude Altitude Speed Heading
2026-05-04 07:01 35.84853 14.49162 260 ft 0 kts 133°
2026-05-04 07:01 35.84850 14.49166 260 ft 3 kts 133°
2026-05-04 07:02 35.84823 14.49201 260 ft 9 kts 133°
2026-05-04 07:02 35.84764 14.49274 259 ft 15 kts 135°
2026-05-04 07:02 35.84682 14.49374 259 ft 18 kts 135°
2026-05-04 07:02 35.84590 14.49488 258 ft 20 kts 134°
2026-05-04 07:03 35.84489 14.49608 257 ft 21 kts 143°
2026-05-04 07:03 35.84347 14.49665 256 ft 22 kts 167°
2026-05-04 07:03 35.84194 14.49727 255 ft 24 kts 151°
2026-05-04 07:03 35.84052 14.49855 252 ft 26 kts 139°
2026-05-04 07:04 35.83927 14.50024 251 ft 27 kts 126°
2026-05-04 07:04 35.83796 14.50198 252 ft 28 kts 137°
2026-05-04 07:04 35.83651 14.50358 250 ft 29 kts 138°
2026-05-04 07:04 35.83552 14.50569 248 ft 27 kts 104°
2026-05-04 07:05 35.83521 14.50704 246 ft 6 kts 114°
2026-05-04 07:05 35.83499 14.50738 246 ft 5 kts 146°
2026-05-04 07:05 35.83472 14.50740 246 ft 3 kts 193°
2026-05-04 07:05 35.83452 14.50715 246 ft 6 kts 236°
2026-05-04 07:06 35.83433 14.50617 246 ft 6 kts 309°
2026-05-04 07:06 35.83455 14.50587 246 ft 5 kts 314°
2026-05-04 07:06 35.83581 14.50432 250 ft 57 kts 315°
2026-05-04 07:07 35.84031 14.49877 252 ft 124 kts 315°
2026-05-04 07:08 35.90205 14.40913 3376 ft 259 kts 306°
2026-05-04 07:09 35.91343 14.39161 4269 ft 264 kts 307°
2026-05-04 07:09 35.92509 14.37388 5201 ft 268 kts 307°
2026-05-04 07:09 35.93697 14.35599 6128 ft 271 kts 308°
2026-05-04 07:09 35.94902 14.33795 7020 ft 274 kts 309°
2026-05-04 07:10 35.96120 14.31976 7926 ft 276 kts 310°
2026-05-04 07:10 35.97345 14.30143 8804 ft 277 kts 310°
2026-05-04 07:12 36.07912 14.16858 13176 ft 341 kts 324°
2026-05-04 07:12 36.09851 14.15147 13905 ft 344 kts 324°
2026-05-04 07:12 36.11806 14.13414 14570 ft 347 kts 324°
2026-05-04 07:12 36.13744 14.11689 15260 ft 348 kts 324°
2026-05-04 07:13 36.15743 14.09911 15948 ft 350 kts 323°
2026-05-04 07:13 36.17723 14.08153 16636 ft 351 kts 323°
2026-05-04 07:13 36.19711 14.06387 17321 ft 352 kts 323°
2026-05-04 07:14 36.27760 13.99235 19685 ft 361 kts 323°
2026-05-04 07:14 36.29806 13.97415 20193 ft 364 kts 323°
2026-05-04 07:15 36.31868 13.95578 20680 ft 367 kts 323°
2026-05-04 07:15 36.33947 13.93724 21177 ft 370 kts 323°
2026-05-04 07:15 36.36045 13.91852 21664 ft 373 kts 323°
2026-05-04 07:15 36.38128 13.89993 22137 ft 376 kts 322°
2026-05-04 07:16 36.40258 13.88090 22609 ft 379 kts 322°
2026-05-04 07:16 36.42403 13.86170 23073 ft 382 kts 323°
2026-05-04 07:16 36.44576 13.84223 23448 ft 387 kts 323°
2026-05-04 07:16 36.46769 13.82262 23862 ft 390 kts 323°
2026-05-04 07:17 36.48980 13.80283 24242 ft 392 kts 323°
2026-05-04 07:17 36.51195 13.78296 24679 ft 393 kts 323°
2026-05-04 07:17 36.53418 13.76302 25094 ft 394 kts 323°
2026-05-04 07:17 36.55640 13.74306 25517 ft 395 kts 322°
2026-05-04 07:18 36.57866 13.72309 25937 ft 395 kts 322°
2026-05-04 07:18 36.60098 13.70305 26355 ft 396 kts 322°
2026-05-04 07:18 36.62331 13.68297 26764 ft 396 kts 322°
2026-05-04 07:18 36.64569 13.66283 27173 ft 397 kts 322°
2026-05-04 07:19 36.66810 13.64263 27576 ft 398 kts 322°
2026-05-04 07:19 36.69057 13.62240 27983 ft 399 kts 322°
2026-05-04 07:19 36.71309 13.60213 28358 ft 400 kts 322°
2026-05-04 07:19 36.73568 13.58179 28726 ft 401 kts 322°
2026-05-04 07:20 36.75828 13.56137 29102 ft 402 kts 322°
2026-05-04 07:20 36.78092 13.54089 29457 ft 402 kts 322°
2026-05-04 07:20 36.80327 13.52060 29798 ft 403 kts 322°
2026-05-04 07:20 36.82598 13.49998 30151 ft 404 kts 322°
2026-05-04 07:22 36.98606 13.35459 32184 ft 402 kts 322°
2026-05-04 07:22 37.00844 13.33423 32213 ft 395 kts 322°
2026-05-04 07:23 37.05260 13.29403 32211 ft 391 kts 321°
2026-05-04 07:23 37.09649 13.25389 32214 ft 391 kts 321°
2026-05-04 07:24 37.14033 13.21372 32217 ft 390 kts 321°
2026-05-04 07:24 37.18390 13.17380 32212 ft 390 kts 321°
2026-05-04 07:26 37.36242 13.01805 32209 ft 397 kts 335°
2026-05-04 07:27 37.41326 12.99174 32208 ft 391 kts 323°